Moses Lake, WA
on Sunday, December 23, 2012

Sunday
Previous Day Next Day
Daily Summary
 ActualAverageRecord
Temperature
Mean Temperature °F 28°F  
Max Temperature 38°F 34°F 46°F (1979)
Min Temperature 25°F 22°F -8°F (1983)
Degree Days
Heating Degree Days 33 37  
Month to date heating degree days 656 825  
Since 1 July heating degree days 1924 2286  
Cooling Degree Days 0 0  
Month to date cooling degree days 0 0  
Year to date cooling degree days 719 615  
Moisture
Dew Point 29°F   
Average Humidity 84    
Maximum Humidity 92    
Minimum Humidity 76    
Precipitation
Precipitation 0.21 in 0.06 in 0.21 in (2012)
Month to date precipitation 1.57 1.00  
Year to date precipitation 9.31 8.67  
Wind
Wind Speed 5 mph   
Max Wind Speed 14 mph   
Max Gust Speed 17 mph   
Visibility 8 miles   
Events Rain , Snow   

Key: T is trace of precipitation, MM is missing value
Source: NWS Daily Summary
Time(PST)TemperatureDew PointHumidity Pressure Visibility Wind DirectionWind SpeedGust SpeedPrecipitationEvents Conditions
12:52 AM 30.0°F 27.0°F 88% 29.83 in 10.0 miles Calm Calm - N/A   Clear
1:52 AM 28.9°F 27.0°F 92% 29.85 in 9.0 miles NE 3.5 mph - N/A   Partly Cloudy
2:52 AM 30.9°F 28.0°F 89% 29.86 in 10.0 miles ESE 6.9 mph - N/A   Clear
3:52 AM 28.9°F 27.0°F 92% 29.86 in 10.0 miles SE 4.6 mph - N/A   Clear
4:52 AM 28.0°F 25.0°F 88% 29.87 in 10.0 miles Calm Calm - N/A   Clear
5:52 AM 26.1°F 23.0°F 88% 29.88 in 10.0 miles Calm Calm - N/A   Clear
6:52 AM 26.1°F 23.0°F 88% 29.86 in 10.0 miles North 6.9 mph - N/A   Clear
7:52 AM 27.0°F 24.1°F 89% 29.87 in 10.0 miles NNE 4.6 mph - N/A   Clear
8:52 AM 30.0°F 27.0°F 88% 29.87 in 10.0 miles NNE 4.6 mph - N/A   Clear
9:52 AM 32.0°F 28.9°F 88% 29.87 in 10.0 miles North 5.8 mph - N/A   Overcast
10:52 AM 34.0°F 30.0°F 85% 29.82 in 10.0 miles North 5.8 mph - N/A   Partly Cloudy
11:52 AM 35.1°F 30.9°F 85% 29.80 in 10.0 miles NNW 6.9 mph - N/A   Partly Cloudy
12:52 PM 35.1°F 32.0°F 89% 29.76 in 10.0 miles North 6.9 mph - N/A   Clear
1:52 PM 36.0°F 32.0°F 86% 29.72 in 10.0 miles NNW 6.9 mph - N/A   Overcast
2:52 PM 36.0°F 30.9°F 82% 29.70 in 10.0 miles North 8.1 mph - N/A   Overcast
3:52 PM 37.0°F 30.0°F 76% 29.67 in 10.0 miles NNE 5.8 mph - N/A   Overcast
4:52 PM 37.9°F 30.0°F 73% 29.65 in 10.0 miles NE 5.8 mph - N/A   Overcast
5:52 PM 37.0°F 30.9°F 79% 29.64 in 10.0 miles ENE 8.1 mph - 0.00 in Rain Light Rain
6:52 PM 36.0°F 32.0°F 86% 29.63 in 10.0 miles NNW 6.9 mph - 0.03 in   Overcast
7:20 PM 35.6°F 32.0°F 87% 29.60 in 10.0 miles North 6.9 mph - 0.00 in   Overcast
7:52 PM 36.0°F 32.0°F 86% 29.65 in 10.0 miles East 3.5 mph - 0.01 in   Overcast
8:52 PM 34.0°F 30.9°F 89% 29.65 in 5.0 miles Calm Calm - 0.03 in Snow Light Snow
9:48 PM 33.8°F 30.2°F 87% 29.63 in 2.0 miles NW 4.6 mph - 0.07 in Snow Light Snow
9:52 PM 33.1°F 30.0°F 89% 29.67 in 2.0 miles NNW 3.5 mph - 0.07 in Snow Light Snow
10:04 PM 33.8°F 30.2°F 87% 29.64 in 2.5 miles NNW 5.8 mph - 0.01 in Snow Light Snow
10:13 PM 33.8°F 30.2°F 87% 29.64 in 4.0 miles NNW 6.9 mph - 0.02 in Snow Light Snow
10:36 PM 33.8°F 30.2°F 87% 29.65 in 6.0 miles NNW 10.4 mph - 0.02 in Snow Light Snow
10:52 PM 33.1°F 30.0°F 89% 29.69 in 5.0 miles NNW 11.5 mph - 0.03 in Snow Light Snow
11:52 PM 33.1°F 30.9°F 92% 29.71 in 8.0 miles NNW 11.5 mph - 0.03 in Rain Light Rain
Moon Phase
Dec. 23 Dec. 28 Jan. 04 Jan. 11 Jan. 18
Sunrise:07:42 AM (PST) Moon Rise:01:12 PM (PST)12/23
Sunset:04:11 PM (PST) Moon Set:03:20 AM (PST)12/23

Copyright © 2014 The Weather Underground, Inc.